DMSP 5D-2 F13 DEB, 40414

Orbit data source: Space-Track

DMSP 5D-2 F13 DEB, 40414 is space debris in SSO originally from a launch on Fri, 24 Mar 1995 UTC launched from the Air Force Western Test Range (AFWTR). Debris objects in space refer to the collection of defunct objects orbiting the Earth. Examples of debris include non-operational satellites, rocket bodies, and fragments generated from explosions, collisions, or faulty payload assembly.

Loading next visibility...
Identifier
40414, 1995-015AB
Orbit
SSO
Last TLE update
9 hours ago
Origin
Manufacturer
Unknown
Mission
Spacecraft
Bus & Motor
Unknown
Mass
Unknown
Launch date (UTC)
1995-03-24 (30 years ago)
Launch vehicle
Unknown
Launch site
Air Force Western Test Range (AFWTR)
Object type
Payload
Rocket body
Debris
Shape & HBR
Unknown
Radar Cross Section
Small (<0.1 m²)

Expand to show TLE details & history

TLE from 9 hours ago
0 DMSP 5D-2 F13 DEB
1 40414U 95015AB  25187.53643904  .00001756  00000-0  68834-3 0  9991
2 40414  98.6537 212.2984 0010594 211.1379 148.9177 14.30654716537823
Epoch: 2025-07-06T12:52Z
TLE epoch observation values (Epoch: 2025-07-06T12:52:28.333Z)
Latitude
0.00001°
Longitude
94.42163°
Altitude
798.981 km
Speed
7.451 km/s
True Right ascension
14h 09m 11s
True Declination
0° 00' 00"
Sunlit
Object was in daylight at epoch
Visualization orbit readout
Latitude
26.22367°
Longitude
-80.92435°
Altitude
788.543 km
Speed
7.464 km/s
Apparent Right ascension
00h 33m 58s
Apparent Declination
-5° 33' 05"
Sunlit
Object is in daylight
Visualization observer readout
Local Sidereal Time
09:59:02
Azimuth
304.245° NW
Elevation
-41.113°
Doppler factor
1
Orbital elements
Apogee altitude
794.275 km
Perigee altitude
779.094 km
Semi-major axis
7,164.822 km
Eccentricity
0.00106
Inclination
98.6537°
RAAN
212.2984°
Arg. of periapsis
211.1379°
True anomaly
Unknown
Mean anomaly
148.9177°
Eccentric anomaly
Unknown
Mean motion
3.57878 °/min
Orbital period
100.59 mins
BSTAR
0.00068834
Loading maneuver chart data...
Loading SW <> Apogee altitude chart data...

DMSP 5D-2 F13 DEB Visibility forecast

Observer location: undefined°, undefined°

Span
Click to sort rows by Start time (UTC) header in descending order
Start Az.
Max El. time (UTC)
Max El. Az.
Max El.
End time (UTC)
End Az.
8 mins2025-07-07 00:45:58.563Z121.611° SE2025-07-07 00:49:58.563Z60.042° ENE26.603°2025-07-07 00:53:58.563Z8.56° NNE
7 mins2025-07-07 02:25:58.563Z212.084° SW2025-07-07 02:28:58.563Z262.658° W28.01°2025-07-07 02:32:58.563Z322.085° NNW
8 mins2025-07-07 14:38:58.563Z11.983° NNE2025-07-07 14:41:58.563Z340.125° N44.793°2025-07-07 14:46:58.563Z196.691° SSW
|